Location: PSU-Greenbush Astrophysical Observatory
(37.5140°N, 94.9880°W)
Time: 09:36:37
(UTC-06:00)

Altair - Pass Details

Date: 31 January 2020
Orbit: 1502 x 1682 km, 47.2° (Epoch: 24 February)

Event Time Altitude Azimuth Distance (km) Brightness Sun altitude
Rises 13:26:11 0° 301° (WNW) 4,937 10.0 33.7°
Reaches altitude 10° 13:29:22 10° 301° (WNW) 3,947 9.6 33.6°
Maximum altitude 13:39:30 76° 218° (SW) 1,711 8.7 33.0°
Drops below altitude 10° 13:49:24 10° 135° (SE) 3,855 10.0 32.3°
Sets 13:52:28 0° 133° (SE) 4,817 10.3 32.1°
